Total_Precipitation_Accumulation
0.10 0.13 0.16 0.14 0.18 0.23 0.29 0.35 0.47 0.48 0.33 0.39 0.61 0.81 1.00 1.19 1.33 1.35 1.46 1.44 1.63 1.91 2.09 2.47 2.88 3.36 3.89 4.44 5.16 5.84 6.43 6.54 6.43 6.11 5.81 5.59 5.14 4.83 4.51 4.26 4.10 3.85 3.55 3.43
0.11 0.15 0.11 0.11 0.13 0.16 0.25 0.35 0.49 0.47 0.35 0.41 0.65 0.90 1.16 1.24 1.17 1.14 1.33 1.42 1.49 1.70 2.02 2.41 2.99 3.28 3.63 4.19 4.79 5.19 5.29 5.10 5.04 5.14 5.11 4.85 4.85 4.69 4.63 4.48 4.34 3.86 3.63 3.51
0.11 0.11 0.08 0.08 0.13 0.15 0.19 0.30 0.39 0.43 0.44 0.53 0.76 1.18 1.43 1.42 1.14 1.03 1.06 1.19 1.32 1.45 1.67 2.04 2.61 2.95 3.13 3.66 4.02 4.03 4.03 4.02 4.15 4.25 4.22 4.27 4.54 4.63 4.74 4.71 4.50 4.15 3.90 3.66
0.06 0.07 0.08 0.09 0.13 0.14 0.21 0.20 0.26 0.32 0.48 0.83 0.94 1.51 1.76 1.84 1.56 1.21 1.09 1.25 1.32 1.38 1.40 1.73 2.09 2.33 2.62 2.91 3.08 3.08 3.21 3.39 3.50 3.57 3.60 3.51 3.54 3.83 4.14 4.41 4.55 4.50 4.21 3.88
0.07 0.07 0.08 0.09 0.10 0.12 0.14 0.14 0.21 0.33 0.47 0.69 0.82 1.17 1.72 2.01 1.97 1.55 1.26 1.20 1.16 1.29 1.46 1.64 1.77 1.98 2.09 2.19 2.34 2.42 2.69 3.18 3.41 3.47 3.60 3.55 3.30 3.32 3.43 3.58 3.81 3.82 3.84 3.64
0.07 0.08 0.08 0.07 0.08 0.11 0.13 0.20 0.32 0.48 0.71 1.09 0.93 1.05 1.62 1.83 1.84 1.46 1.24 1.16 1.06 1.06 1.18 1.39 1.67 1.78 1.78 1.81 1.96 2.17 2.50 3.08 3.41 3.50 3.39 3.42 3.46 3.53 3.43 3.38 3.49 3.40 3.37 3.28
0.18 0.16 0.12 0.08 0.10 0.13 0.16 0.33 0.79 1.28 1.60 1.65 1.00 0.97 1.26 1.34 1.21 1.18 1.06 1.09 1.14 1.04 0.97 0.98 1.16 1.41 1.44 1.43 1.59 1.85 2.13 2.61 2.95 3.11 2.97 2.93 3.15 3.35 3.25 3.06 3.00 2.98 2.84 2.77
0.21 0.25 0.16 0.11 0.11 0.12 0.16 0.27 0.66 1.03 1.18 1.30 1.16 1.50 1.57 1.17 0.98 0.89 0.79 0.85 0.94 0.84 0.75 0.71 0.77 0.96 1.22 1.25 1.36 1.52 1.80 2.07 2.39 2.61 2.67 2.73 2.93 3.06 3.01 3.21 2.95 2.80 2.46 2.34
0.11 0.13 0.12 0.11 0.11 0.14 0.17 0.19 0.31 0.48 0.69 1.04 1.34 1.57 1.48 1.21 1.10 0.92 0.76 0.73 0.72 0.66 0.66 0.70 0.75 0.96 1.05 1.05 1.16 1.33 1.55 1.76 2.03 2.28 2.46 2.53 2.51 2.53 2.68 2.85 2.79 2.63 2.54 2.28
0.08 0.08 0.10 0.11 0.12 0.14 0.16 0.18 0.25 0.38 0.65 0.93 1.25 1.70 1.75 1.50 1.26 1.07 1.00 0.82 0.71 0.71 0.71 0.71 0.71 0.77 0.83 0.90 1.06 1.29 1.50 1.54 1.78 2.15 2.41 2.35 2.44 2.36 2.51 2.49 2.47 2.49 2.41 2.35
0.06 0.07 0.09 0.13 0.15 0.18 0.20 0.19 0.21 0.29 0.36 0.59 1.15 1.39 1.23 1.22 1.15 1.09 0.99 0.93 0.86 0.81 0.76 0.72 0.73 0.74 0.85 0.82 0.93 1.13 1.30 1.44 1.71 2.07 2.41 2.49 2.44 2.44 2.50 2.32 2.26 2.37 2.39 2.37
0.07 0.07 0.10 0.15 0.21 0.21 0.21 0.20 0.22 0.31 0.32 0.38 0.62 0.95 0.73 0.83 0.95 0.99 0.87 0.81 0.76 0.65 0.62 0.58 0.57 0.66 0.67 0.70 0.83 1.17 1.47 1.84 2.04 2.39 2.77 2.87 2.67 2.47 2.31 2.10 2.08 2.25 2.42 2.45
0.06 0.08 0.18 0.36 0.38 0.27 0.21 0.18 0.20 0.23 0.24 0.33 0.62 0.87 0.67 0.74 0.88 0.90 0.88 0.77 0.73 0.73 0.60 0.59 0.57 0.69 0.70 0.69 0.72 0.85 1.06 1.50 1.88 2.28 2.67 2.64 2.37 2.15 2.10 2.07 2.10 2.25 2.45 2.44
0.07 0.07 0.13 0.32 0.37 0.36 0.30 0.24 0.22 0.19 0.23 0.31 0.43 0.72 0.70 0.74 0.73 0.81 0.78 0.72 0.79 0.86 0.72 0.67 0.65 0.65 0.66 0.68 0.68 0.79 0.90 0.99 1.27 1.82 2.22 2.16 1.96 1.89 1.93 1.98 2.05 2.11 2.23 2.27
0.08 0.07 0.08 0.11 0.19 0.26 0.27 0.25 0.22 0.19 0.17 0.31 0.38 0.52 0.59 0.75 0.74 0.77 0.76 0.70 0.67 0.76 0.72 0.67 0.68 0.77 0.79 0.86 0.87 0.88 0.90 0.92 1.14 1.70 2.04 2.02 1.89 1.88 1.86 1.86 2.00 2.11 2.19 2.19
0.10 0.11 0.12 0.14 0.18 0.20 0.19 0.22 0.21 0.16 0.14 0.15 0.23 0.42 0.47 0.74 0.88 0.86 0.87 0.82 0.77 0.75 0.71 0.68 0.62 0.73 0.86 0.94 0.97 0.98 1.04 1.09 1.23 1.62 1.95 1.96 1.85 1.80 1.73 1.82 1.98 2.12 2.19 2.37
0.17 0.15 0.16 0.19 0.22 0.22 0.28 0.24 0.20 0.20 0.20 0.23 0.34 0.47 0.47 0.57 0.74 0.85 0.86 0.82 0.75 0.77 0.70 0.71 0.75 0.85 1.05 1.00 1.04 1.11 1.05 1.11 1.31 1.69 1.97 2.06 1.98 1.92 1.89 1.82 2.00 2.21 2.45 2.67
0.29 0.28 0.26 0.24 0.29 0.41 0.33 0.25 0.25 0.29 0.35 0.36 0.39 0.43 0.46 0.60 0.70 0.84 0.99 0.85 0.71 0.75 0.78 0.87 0.87 0.95 1.04 1.03 1.08 1.15 1.18 1.23 1.41 1.73 2.00 2.15 2.11 2.10 2.18 2.19 2.26 2.47 2.72 2.89
0.35 0.40 0.37 0.34 0.39 0.48 0.44 0.35 0.38 0.42 0.50 0.54 0.55 0.48 0.55 0.63 0.75 0.93 0.91 0.86 0.89 0.91 0.92 0.98 1.09 1.15 1.23 1.24 1.19 1.26 1.42 1.48 1.55 1.66 1.96 2.18 2.26 2.32 2.30 2.34 2.59 2.79 2.92 2.94
0.37 0.46 0.51 0.47 0.58 0.67 0.66 0.48 0.41 0.49 0.84 0.67 0.68 0.66 0.61 0.66 0.98 1.14 0.95 0.87 0.87 0.99 1.10 1.10 1.17 1.26 1.30 1.34 1.40 1.48 1.61 1.78 1.91 2.01 2.16 2.45 2.65 2.79 2.79 2.86 2.94 2.99 3.09 3.05
0.67 0.63 0.63 0.69 0.83 0.79 0.62 0.54 0.48 0.93 1.27 0.93 0.89 0.87 0.78 0.91 1.04 1.06 0.96 0.93 0.91 0.94 1.09 1.17 1.20 1.31 1.40 1.42 1.57 1.87 2.03 2.12 2.28 2.43 2.50 2.77 3.12 3.29 3.23 3.26 3.15 3.07 3.06 3.06
0.91 0.87 0.88 0.93 1.20 1.30 0.72 0.65 1.02 1.28 1.07 1.11 1.12 1.08 1.03 1.01 1.06 1.08 1.07 0.96 0.95 1.00 1.07 1.20 1.26 1.33 1.53 1.79 1.99 2.28 2.48 2.52 2.59 2.73 3.03 3.26 3.43 3.25 3.14 3.33 3.23 3.24 3.31 3.26
1.00 1.05 1.14 1.22 1.45 1.24 0.90 1.04 1.21 1.17 1.14 1.20 1.17 1.11 1.02 0.99 1.14 1.09 1.03 1.05 0.96 0.96 1.02 1.14 1.27 1.47 1.68 1.98 2.36 2.60 2.67 2.87 2.88 2.93 3.14 3.20 3.24 3.34 3.48 3.55 3.44 3.39 3.38 3.30
1.24 1.12 1.30 1.52 1.58 1.34 1.18 1.18 1.14 1.15 1.17 1.14 1.08 1.09 1.07 1.06 1.06 1.06 1.03 1.05 1.02 1.01 1.08 1.15 1.29 1.55 1.86 2.15 2.49 2.66 2.71 2.73 2.74 2.77 2.81 2.93 3.09 3.22 3.34 3.58 3.58 3.45 3.27 3.17
1.48 1.40 1.67 2.07 2.14 1.97 1.79 1.54 1.37 1.32 1.24 1.28 1.26 1.22 1.18 1.12 1.08 1.05 1.09 1.10 1.09 1.08 1.18 1.30 1.43 1.55 1.72 2.01 2.32 2.45 2.59 2.67 2.83 2.86 2.78 2.70 2.72 2.84 2.99 3.13 3.21 3.16 3.14 3.03
1.67 1.73 2.03 2.44 2.17 2.12 2.23 1.92 1.68 1.62 1.62 1.61 1.57 1.52 1.41 1.32 1.26 1.21 1.21 1.17 1.13 1.08 1.15 1.29 1.43 1.61 1.79 2.00 2.22 2.32 2.49 2.63 2.79 2.79 2.68 2.62 2.59 2.66 2.71 2.71 2.69 2.57 2.47 2.35